[[{"header":{"parameterUnit":"m.s-1","parameterCategory":1,"la1":30.2992,"la2":30.254,"lo1":-89.0895,"lo2":-89.0443,"dy":0.0025,"dx":0.0025,"nx":19,"ny":19,"refTime":"2026-05-02T03:00:00:Z","depth":0,"parameterNumber":2,"parameterNumberName":"U-component_of_WINDS"},"data":[0,0,0,-0.1041,-0.1044,-0.1184,-0.1184,-0.1365,-0.1367,0,0,0,0,0,0,0,0,0,0,0,-0.1,-0.1001,-0.1041,-0.1045,-0.1184,-0.1184,-0.1365,-0.1367,0,0,0,0,0,0,0,0,0,0,0,-0.0999,-0.1001,-0.1002,-0.1045,-0.1183,-0.1184,-0.1365,-0.1259,0,0,0,0,0,0,0,0,0,0,-0.1124,-0.1085,-0.1001,-0.1002,-0.1046,-0.1183,-0.1184,-0.1254,-0.1266,-0.1303,0,-0.1334,0,-0.1353,-0.1379,-0.138,0,0,0,-0.1045,-0.1075,-0.1112,-0.1003,-0.1047,-0.1183,-0.1121,-0.1261,-0.1274,-0.1319,-0.1337,-0.1344,-0.1356,-0.138,-0.1381,-0.1589,-0.159,0,0,-0.1038,-0.1026,-0.1103,-0.1121,-0.1097,-0.1117,-0.1125,-0.1269,-0.1289,-0.1338,-0.1348,-0.1359,-0.1382,-0.1383,-0.1588,-0.1589,0,0,0,-0.1015,-0.102,-0.1054,-0.1113,-0.1138,-0.1121,-0.1131,-0.1282,-0.1294,-0.135,-0.1361,-0.1383,-0.1385,-0.1587,-0.1589,-0.1624,0,0,0,-0.101,-0.1007,-0.1051,-0.1045,-0.1135,-0.1212,-0.1141,-0.1284,-0.1301,-0.1361,-0.1383,-0.1387,-0.1586,-0.1588,-0.1621,-0.1645,0,0,0,-0.0991,-0.1005,-0.1025,-0.1044,-0.1103,-0.1209,-0.123,-0.1288,-0.1308,-0.138,-0.1387,-0.1586,-0.1588,-0.1618,-0.164,-0.1698,0,0,0,-0.0968,-0.1055,-0.1025,-0.1127,-0.1102,-0.1229,-0.1229,-0.1325,-0.139,-0.1384,-0.1586,-0.1589,-0.1618,-0.1637,-0.1695,-0.1747,-0.1766,0,0,-0.1071,-0.1067,-0.1128,-0.1105,-0.1234,-0.1208,-0.1344,-0.1416,-0.1435,-0.1537,-0.1542,-0.1622,-0.164,-0.1697,-0.1873,-0.1888,0,0,0,-0.1157,-0.1201,-0.1237,-0.1298,-0.1354,-0.1404,-0.1456,-0.1483,-0.157,-0.1484,-0.1657,-0.1668,-0.1702,-0.1728,-0.1741,-0.1773,-0.1599,-0.1599,-0.1598,-0.1289,-0.1306,-0.1408,-0.1442,-0.1501,-0.1553,-0.1603,-0.1649,-0.165,-0.169,-0.1722,-0.1826,-0.1856,-0.1865,-0.1898,-0.1748,-0.1748,-0.1748,-0.1748,-0.1445,-0.1512,-0.1508,-0.1607,-0.1624,-0.1708,-0.1761,-0.1759,-0.1841,-0.1804,-0.1835,-0.1796,-0.1882,-0.1911,-0.1751,-0.175,-0.175,-0.175,-0.1749,-0.1538,-0.1572,-0.1601,-0.1691,-0.1758,-0.1788,-0.1867,-0.188,-0.1893,-0.1923,-0.196,-0.1959,-0.1963,-0.1938,-0.1939,-0.1939,-0.194,-0.194,-0.194,-0.1623,-0.1654,-0.1718,-0.1783,-0.1824,-0.1879,-0.193,-0.1972,-0.2021,-0.2025,-0.2025,-0.2024,-0.1885,-0.1852,-0.1946,-0.1945,-0.1944,-0.1944,-0.1943,-0.1783,-0.1748,-0.1847,-0.1887,-0.1965,-0.2032,-0.2045,-0.2127,-0.2163,-0.2202,-0.2192,-0.2086,-0.2084,-0.2074,-0.2047,-0.2186,-0.2186,-0.2186,-0.2186,-0.1864,-0.1861,-0.1965,-0.203,-0.2094,-0.2115,-0.2229,-0.2269,-0.2306,-0.233,-0.231,-0.2274,-0.2263,-0.2267,-0.2253,-0.2229,-0.2411,-0.2411,-0.2411,-0.1964,-0.1969,-0.2063,-0.2095,-0.2156,-0.2209,-0.2316,-0.2392,-0.2426,-0.242,-0.2349,-0.234,-0.2281,-0.2261,-0.2258,-0.2235,-0.219,0,0]},{"header":{"parameterUnit":"m.s-1","parameterCategory":1,"la1":30.2992,"la2":30.254,"lo1":-89.0895,"lo2":-89.0443,"dy":0.0025,"dx":0.0025,"nx":19,"ny":19,"refTime":"2026-05-02T03:00:00:Z","depth":0,"parameterNumber":3,"parameterNumberName":"V-component_of_WINDS"},"data":[0,0,0,-6.8961,-6.8968,-6.9306,-6.9307,-6.976,-6.9765,0,0,0,0,0,0,0,0,0,0,0,-6.8875,-6.8878,-6.896,-6.8969,-6.9306,-6.9308,-6.976,-6.9765,0,0,0,0,0,0,0,0,0,0,0,-6.8873,-6.8877,-6.8882,-6.897,-6.9306,-6.9308,-6.9759,-6.9496,0,0,0,0,0,0,0,0,0,0,-6.9164,-6.9099,-6.8876,-6.8882,-6.8972,-6.9306,-6.9308,-6.9483,-6.9512,-6.9617,0,-6.9715,0,-6.9747,-6.9796,-6.9798,0,0,0,-6.8958,-6.9075,-6.9153,-6.8882,-6.8975,-6.9305,-6.9151,-6.9499,-6.9532,-6.9656,-6.9721,-6.9737,-6.9755,-6.9799,-6.9802,-7.0445,-7.0448,0,0,-6.8939,-6.8943,-6.913,-6.9175,-6.9126,-6.914,-6.9161,-6.9519,-6.9589,-6.9722,-6.9747,-6.9762,-6.9803,-6.9806,-7.0441,-7.0446,0,0,0,-6.8893,-6.893,-6.8999,-6.9157,-6.9217,-6.915,-6.9175,-6.9573,-6.9596,-6.9752,-6.9767,-6.9805,-6.9811,-7.0438,-7.0443,-7.0623,0,0,0,-6.8881,-6.8903,-6.8992,-6.8997,-6.9211,-6.94,-6.9222,-6.9571,-6.9611,-6.9765,-6.9806,-6.9816,-7.0434,-7.044,-7.061,-7.0708,0,0,0,-6.8848,-6.8899,-6.8953,-6.8997,-6.9142,-6.9394,-6.9436,-6.958,-6.9622,-6.9798,-6.9817,-7.0431,-7.0439,-7.0598,-7.0689,-7.0881,0,0,0,-6.8812,-6.9106,-6.8956,-6.9289,-6.914,-6.9502,-6.9434,-6.9703,-6.9876,-6.9808,-7.0434,-7.0442,-7.0594,-7.0677,-7.0868,-7.1045,-7.1119,0,0,-6.9185,-6.9151,-6.9347,-6.9222,-6.9613,-6.945,-6.9867,-7.0021,-7.0033,-7.0306,-7.0322,-7.0614,-7.0687,-7.0878,-7.1523,-7.1582,0,0,0,-6.9466,-6.9608,-6.971,-6.9876,-7.0002,-7.0118,-7.0207,-7.0264,-7.0497,-7.0175,-7.0733,-7.0777,-7.0889,-7.0973,-7.1023,-7.112,-7.0481,-7.048,-7.0479,-7.0,-7.0001,-7.0326,-7.0369,-7.053,-7.062,-7.0751,-7.0843,-7.0795,-7.0927,-7.101,-7.1401,-7.1501,-7.1538,-7.1639,-7.11,-7.1101,-7.1102,-7.1102,-7.0548,-7.075,-7.068,-7.0971,-7.0971,-7.1214,-7.1311,-7.127,-7.1496,-7.1339,-7.1437,-7.1269,-7.1602,-7.169,-7.1116,-7.1113,-7.1112,-7.111,-7.1109,-7.0901,-7.0998,-7.1063,-7.1304,-7.1488,-7.1519,-7.1741,-7.173,-7.1722,-7.1819,-7.1907,-7.1904,-7.1902,-7.1861,-7.1862,-7.1864,-7.1865,-7.1866,-7.1867,-7.1243,-7.131,-7.1499,-7.1658,-7.1763,-7.1901,-7.1993,-7.2097,-7.2208,-7.2183,-7.2184,-7.2125,-7.1633,-7.1512,-7.1888,-7.1884,-7.1881,-7.1879,-7.1878,-7.1805,-7.1676,-7.1968,-7.2075,-7.226,-7.2445,-7.2428,-7.2639,-7.2723,-7.2833,-7.2752,-7.2389,-7.2353,-7.2314,-7.2214,-7.2749,-7.2749,-7.2749,-7.2749,-7.2105,-7.2085,-7.2383,-7.2554,-7.2719,-7.2734,-7.3064,-7.3138,-7.3194,-7.3246,-7.3166,-7.3031,-7.2991,-7.2979,-7.2925,-7.2832,-7.3512,-7.3513,-7.3514,-7.2452,-7.2448,-7.2733,-7.2787,-7.2931,-7.3054,-7.3365,-7.3563,-7.3599,-7.3544,-7.3287,-7.3255,-7.3036,-7.2965,-7.2908,-7.2824,-7.2652,0,0]}]]